Regional Weather Roundup
Issued by NWS Wakefield, VA

Home | Current Version | Previous Version | Graphics & Text | Print | Product List | Glossary On
Versions: 1 2 3 4 5 6 7 8 9 10 11 12 13 14 15 16 17 18 19 20 21 22 23 24 25 26 27 28 29 30 31 32 33 34 35 36 37 38 39 40 41 42 43 44 45 46 47 48 49 50
000
ASUS41 KAKQ 260610
RWRAKQ

REGIONAL WEATHER ROUNDUP
NATIONAL WEATHER SERVICE WAKEFIELD VA
100 AM EST WED NOV 26 2014

Note: "fair" indicates few or no clouds below 12,000 feet with no
significant weather and/or obstructions to visibility. * = Denotes
station may not report precipitation (e.g., rain,snow,etc.),
thunder or fog.

VAZ042-051-052>054-056-260700-
NORTHERN VIRGINIA

CITY           SKY/WX    TMP DP  RH WIND       PRES   REMARKS
WASH NATIONAL  CLOUDY    50  38  63 CALM      30.16F
DULLES         CLOUDY    43  38  82 NW3       30.16S
FORT BELVOIR   CLOUDY    45  39  78 NW2       30.15F
QUANTICO       CLOUDY    47  41  80 NE3       30.15F
FREDERICKSBRG* CLOUDY    47  42  80 N5        30.11F
STAFFORD*      CLOUDY    44  39  81 CALM      30.17F
WARRENTON      CLOUDY    45  43  93 N3        30.13F
CULPEPER*      CLOUDY    45  41  87 CALM      30.14F
MANASSAS*      CLOUDY    45  39  81 CALM      30.14F
LEESBURG*      CLOUDY    43  39  87 N5        30.17R
WINCHESTER     CLOUDY    41  32  70 CALM      30.15R
FRONT ROYAL*   CLOUDY    39  32  75 CALM      30.14R
LURAY*         CLOUDY    41  36  81 CALM      30.13F
$$

VAZ048-049-060>072-079>083-260700-
CENTRAL AND SOUTH CENTRAL VIRGINIA

CITY           SKY/WX    TMP DP  RH WIND       PRES   REMARKS
RICHMOND       LGT RAIN  49  44  83 N6        30.09F
CHESTERFIELD*  CLOUDY    46  36  66 NE3       30.10F
PETERSBURG*    LGT RAIN  49  47  91 N6        30.09F
HANOVER        RAIN      46  45  96 CALM      30.11F
TAPPAHANNOCK*  RAIN      47  42  81 CALM      30.11F
QUINTON*       CLOUDY    47  44  91 N5        30.10F
CHARLOTTSVILLE CLOUDY    44  36  73 N3        30.13S
GORDONSVILLE*  CLOUDY    43  39  86 CALM      30.13S
ORANGE*        CLOUDY    45  41  87 CALM      30.14F
LOUISA*        CLOUDY    46  41  81 CALM      30.10F
BUMPASS*       CLOUDY    47  41  80 CALM      30.11F
FARMVILLE*     LGT RAIN  49  41  75 N3        30.06F
CREWE*         CLOUDY    47  46  94 CALM      30.06F
FORT PICKETT*  CLOUDY    47  46  93 NE8       30.05F
CHASE CITY*    CLOUDY    50  50 100 NE5       30.05F
CLARKSVILLE*   CLOUDY    46  46 100 CALM      30.04F
SOUTH HILL*    CLOUDY    48  47  97 NE5       30.08F
LAWRENCEVILLE* CLOUDY    48  47  99 NE5       30.03F
$$

VAZ088>098-260700-
SOUTHEAST VIRGINIA

CITY           SKY/WX    TMP DP  RH WIND       PRES   REMARKS
NORFOLK        LGT RAIN  52  50  93 NE13      30.05F FOG
VIRGINIA BEACH LGT RAIN  54  51  90 NE14      30.04F FOG
NORFOLK NAVAL  LGT RAIN  54  50  86 NE13      30.06F FOG
WEST POINT*    CLOUDY    50  45  83 NE3       30.11F
SALUDA*        CLOUDY    49  45  87 NE3       30.09F
NEWPORT NEWS   RAIN      53  48  83 NE9       30.07F
LANGLEY AFB    LGT RAIN  50 N/A N/A N8        30.08F
FORT EUSTIS    LGT RAIN  50  50 100 NE7       30.06F FOG
WILLIAMSBURG*  CLOUDY    52  48  87 CALM      30.10F
HR EXEC AP*    CLOUDY    52  48  87 NE8       30.06F
FRANKLIN*      CLOUDY    50  50 100 NE6       30.03F
WAKEFIELD      LGT RAIN  50  47  89 NE7       30.05F FOG
$$

VAZ020-022-025-037-045-260700-
WEST CENTRAL AND SOUTHWEST VIRGINIA

CITY           SKY/WX    TMP DP  RH WIND       PRES   REMARKS
STAUNTON*      CLOUDY    40  33  74 E3        30.13S
WAYNESBORO*    CLOUDY    41  30  65 NE3       30.10F
HOT SPRINGS VA CLOUDY    40  19  44 E5        30.03F
LYNCHBURG      LGT RAIN  44  37  76 NW5       30.09F
DANVILLE       LGT RAIN  48  43  82 NE7       30.05F
SOUTH BOSTON*  CLOUDY    46  45  94 N7        30.06F
MARTINSVILLE   LGT RAIN  43  43 100 CALM      30.07F
ROANOKE        CLOUDY    44  33  65 CALM      30.11S
BLACKSBURG     CLOUDY    43  30  61 SE7       30.07F
DUBLIN*        CLOUDY    41  34  76 CALM      30.06F
MARION*        CLOUDY    41  30  66 CALM      30.07S
HILLSVILLE*    LGT RAIN  42  31  66 SE8       30.04F
RICHLANDS*     CLOUDY    45  24  44 CALM      30.04S
WISE*          CLOUDY    39  27  60 CALM      30.03F
ABINGDON*      CLOUDY    45  29  54 CALM      30.04R
$$

MDZ021>025-VAZ099-100-260700-
SOUTHERN MARYLAND AND THE DELMARVA PENINSULA

CITY           SKY/WX    TMP DP  RH WIND       PRES   REMARKS
PATUXENT RIVER LGT RAIN  48  42  80 NW5       30.13F
BAY BRIDGE APT   N/A     46  37  71 CALM      30.16F
LEONARDTOWN    CLOUDY    46  39  76 CALM      30.14F
DOVER          LGT RAIN  46  43  87 NW8       30.13F
GEORGETOWN     CLOUDY    49  40  71 N3        30.15F
EASTON         CLOUDY    49  40  71 E3        30.19S
CAMBRIDGE      CLOUDY    48  41  76 CALM      30.14F
SALISBURY      LGT RAIN  50  41  71 NE5       30.13F
OCEAN CITY     LGT RAIN  49  42  77 NE5       30.14S
WALLOPS ISLAND LGT RAIN  49  44  83 NE6       30.12F
ACCOMACK*      RAIN      48  43  81 NE5       30.10F
$$

NCZ012>017-030>032-260700-
NORTH CENTRAL AND EASTERN NORTH CAROLINA

CITY           SKY/WX    TMP DP  RH WIND       PRES   REMARKS
ROANOKE RAPIDS DRIZZLE   48  48 100 NE5       30.01F
RALEIGH        RAIN      48  46  93 N5        29.98F FOG
ELIZABETH CITY LGT RAIN  58  54  86 NE13      30.00F
AHOSKIE*       LGT RAIN  50  49  97 NE7       30.01F
EDENTON*       RAIN      54  54 100 NE6       29.97F
CURRITUCK*     RAIN      55  54  95 N10       30.03F
KILL DEVIL HLS LGT RAIN  59  59  99 NE6       29.99F VSB 1
MANTEO         RAIN      58  58  99 NE12      30.00F
CAPE HATTERAS  LGT RAIN  58  58 100 NE9       29.99F FOG
TARBORO*       DRIZZLE   51  50  95 NE3       30.00F
GOLDSBORO      LGT RAIN  54  54  99 NE8       29.93F FOG
WASHINGTON     CLOUDY    55  54  97 NE7       29.97F
GREENVILLE     LGT RAIN  54  54 100 NE6       29.99F
NEW BERN       LGT RAIN  61  58  90 NE7       29.94F
WILMINGTON     LGT RAIN  62  61  96 E10       29.90F
$$

VAZ048-260700-
ELSEWHERE

CITY           SKY/WX    TMP DP  RH WIND       PRES   REMARKS
HARRISBURG PA  CLOUDY    40  34  79 N6        30.17S
BALTIMORE      CLOUDY    45  35  68 CALM      30.15F
ANNAPOLIS      CLOUDY    46  41  82 NW3       30.15F
ANDREWS AFB    CLOUDY    45  39  79 E2        30.14F
PHILADELPHIA   CLOUDY    47  35  63 CALM      30.19R
WILDWOOD NJ*   CLOUDY    45  39  81 CALM      30.14F
HENDERSON NC   RAIN      48  47  93 N6        30.02F
GREENSBORO     LGT RAIN  46  43  89 N7        30.02F
ROCKY MOUNT    LGT RAIN  51  50  96 NE10      29.97F FOG
$$

VAZ100-260700-
MARINE

STATION/POSITION TIME  TEMP    WIND        PRES    WAVE   SWELL
                       AIR SEA DIR/SP/G            HT/PER HT/PER
                 (UTC) (F)     (DEG/KT/KT) (MB)    (FT/S) (FT/S)
CAPE MAY NJ      0600   48 51  360/  1/  1 1020.7S
LEWES DE         0600   50 51   CALM  /  1 1020.9R
15NM E FENWICK I 0600   53 55              1020.6S   3/ 8
OCEAN-CITY-INLET 0600   52 50   70/  2/  4 1020.4F
WACHAPREAGUE VA  0600   50 53   30/  7/ 10 1019.2F
THOMAS POINT MD  0600   48 48   30/  5/  5 1022.3F
GOOSES REEF MD   0600   49        CALM     1021.2F
COVE POINT MD    0600   49      50/  5/  6 1020.4S
SOLOMONS ISLAND  0600      50                N/A
BISHOPS HEAD MD  0600   48 49   30/  5/  6 1019.6F
PINEY POINT MD   0600           40/  5/  5   N/A
POTOMAC MD       0600   50      80/  6/  8 1019.1S
CAMBRIDGE MD     0600   47 45  260/  2/  3 1020.4F
LEWISETTA VA     0600   49 50  360/  2/  3 1019.7R
RAPPAHANNOCK LGT 0600           30/ 11/ 12 1019.6F
STINGRAY PT      0600   50      70/ 10/ 12 1019.5F
YORK RVR RNG VA  0600   50      50/ 12/ 14 1018.3F
YORKTOWN VA      0600   50 51   50/  7/  8 1018.5F
JAMESTOWN VA     0600   48      90/  4/  6   N/A
DOMINION TERM VA 0600   51      70/  9/ 12 1018.4F
KIPTOPEKE VA     0600      56   70/  8/ 11   N/A
CHES BAY BRIDGE  0600   53 52   40/ 18/ 20 1017.7F
CAPE HENRY VA    0600   52      50/ 15/ 19 1017.0F
CHESAPEAKE LGHT  0500   54      40/ 19/ 20 1019.2F
WILLOUBY STN VA  0600   51      50/ 10/ 11 1016.7F
S CRANEY ISL VA  0600           20/ 12/ 13 1017.5F
CAPE HENRY BUOY  0600      57                N/A     4/ 8
1ST LANDING BUOY 0600   53      50/ 16/ 19 1018.4R
CAPE CHARLES BUO 0600      55                N/A     4/10   3/10
64NM E OF VA BCH 0600   61 65   20/ 16/ 17 1016.9F   5/ 8   3/ 8
DUCK PIER NC     0600   58 58   30/ 15/ 17 1015.3F
44100 DUCK FRF   0600      59                N/A     4/ 9   2/11
44056 DUCK FRF   0600      58                N/A     3/ 8
OREGON INLET NC  0600   60 58   30/ 10/ 12 1016.2F
HATTERAS NC      0600   59 62   40/  9/ 12 1016.4F
DIAMOND SHLS NC  0600   69     150/  4/  6 1015.9F   5/ 8   5/ 8
CAPE LOOKOUT NC  0500   61      50/ 12/ 13 1015.8F
$$


USA.gov is the U.S. government's official web portal to all federal, state and local government web resources and services.